M I D A S
Marine Information and Data Acquisition System
Tripno 2121 of the Zeeleeuw from 2011-06-16 07:04:24 to 2011-06-16 16:24:50
Back to CruiseResearch ActivitiesStationsMapUnderway DataData graphs

EquipmentUnitsComments
TimeDGPSUTC
LatitudeDGPSDM.mWGS84
LongitudeDGPSDM.mWGS84
SpeedMeteo Stationm/sRelative wind speed
DirectionMeteo StationdegRelative wind direction
TemperatureMeteo Stationdeg CelciusAir temperature
PressureMeteo StationPaAtmospheric pressure
HumidityMeteo Station%Relative humidity
Missing or incorrect values are displayed as -999
Metereological data collected by the RV Zeeleeuw from 2011-06-16 06:53:31 to 2011-06-16 16:31:56
                                                                                    Next 1000 lines
Time Latitude Longitude Speed Direction Temperature Pressure Humidity
2011-06-16 06:53:41 51°13.636 2°56.015 -999 33 14.6 101030 45
2011-06-16 06:53:47 51°13.637 2°56.011 -999 32 14.6 101030 45
2011-06-16 06:53:52 51°13.638 2°56.006 -999 38 14.6 101030 45
2011-06-16 06:53:57 51°13.64 2°56.001 1.7 41 14.6 101030 45
2011-06-16 06:54:03 51°13.642 2°55.993 1.2 40 14.6 101030 45
2011-06-16 06:54:09 51°13.644 2°55.985 0.3 36 14.6 101030 45
2011-06-16 06:54:14 51°13.647 2°55.977 0.1 78 14.5 101030 45
2011-06-16 06:54:19 51°13.649 2°55.969 0.1 39 14.5 101030 45
2011-06-16 06:54:24 51°13.652 2°55.961 0.1 26 14.6 101030 46
2011-06-16 06:54:29 51°13.654 2°55.952 0.1 35 14.6 101030 46
2011-06-16 06:54:34 51°13.656 2°55.944 0.6 18 14.5 101030 45
2011-06-16 06:54:39 51°13.658 2°55.935 0.8 39 14.5 101030 45
2011-06-16 06:54:44 51°13.66 2°55.927 1 27 14.6 101030 46
2011-06-16 06:54:50 51°13.662 2°55.917 0.8 43 14.6 101030 46
2011-06-16 06:54:55 51°13.664 2°55.908 0.7 34 14.6 101030 45
2011-06-16 06:54:59 51°13.665 2°55.901 0.1 37 14.6 101030 45
2011-06-16 06:55:04 51°13.667 2°55.893 0.1 39 14.6 101030 45
2011-06-16 06:55:09 51°13.669 2°55.885 -999 36 14.6 101030 45
2011-06-16 06:55:14 51°13.671 2°55.877 -999 78 14.6 101030 46
2011-06-16 06:55:19 51°13.673 2°55.869 -999 41 14.6 101030 46
2011-06-16 06:55:24 51°13.674 2°55.861 -999 39 14.6 101030 46
2011-06-16 06:55:29 51°13.676 2°55.853 -999 43 14.6 101030 46
2011-06-16 06:55:34 51°13.678 2°55.845 -999 41 14.6 101030 46
2011-06-16 06:55:39 51°13.679 2°55.837 -999 35 14.6 101030 46
2011-06-16 06:55:44 51°13.681 2°55.829 -999 24 14.6 101030 46
2011-06-16 06:55:49 51°13.682 2°55.822 -999 35 14.6 101030 46
2011-06-16 06:55:54 51°13.683 2°55.814 -999 24 14.6 101030 46
2011-06-16 06:55:59 51°13.685 2°55.807 -999 35 14.6 101030 46
2011-06-16 06:56:04 51°13.686 2°55.799 -999 43 14.6 101030 46
2011-06-16 06:56:09 51°13.686 2°55.792 -999 44 14.6 101030 46
2011-06-16 06:56:14 51°13.687 2°55.785 -999 44 14.6 101030 46
2011-06-16 06:56:19 51°13.689 2°55.778 -999 35 14.6 101030 46
2011-06-16 06:56:24 51°13.69 2°55.771 -999 24 14.6 101030 46
2011-06-16 06:56:29 51°13.691 2°55.765 -999 35 14.6 101030 46
2011-06-16 06:56:34 51°13.692 2°55.759 -999 44 14.6 101030 45
2011-06-16 06:56:39 51°13.693 2°55.753 -999 41 14.6 101030 45
2011-06-16 06:56:44 51°13.693 2°55.748 -999 37 14.6 101030 45
2011-06-16 06:56:49 51°13.694 2°55.745 0.1 36 14.6 101030 45
2011-06-16 06:56:54 51°13.694 2°55.742 1.3 39 14.6 101030 45
2011-06-16 06:56:59 51°13.694 2°55.741 2.3 41 14.6 101030 45
2011-06-16 06:57:03 51°13.694 2°55.741 1.3 44 14.6 101030 45
2011-06-16 06:57:08 51°13.695 2°55.741 2.5 34 14.6 101030 45
2011-06-16 06:57:13 51°13.696 2°55.743 1.7 80 14.6 101030 45
2011-06-16 06:57:18 51°13.697 2°55.745 0.7 31 14.6 101030 45
2011-06-16 06:57:23 51°13.699 2°55.747 0.1 78 14.6 101030 47
2011-06-16 06:57:27 51°13.7 2°55.749 0.1 35 14.6 101030 47
2011-06-16 06:57:33 51°13.702 2°55.751 0.1 23 14.6 101030 45
2011-06-16 06:57:39 51°13.703 2°55.752 -999 35 14.6 101030 45
2011-06-16 06:57:44 51°13.704 2°55.752 -999 25 14.6 101030 45
2011-06-16 06:57:48 51°13.704 2°55.752 -999 39 14.6 101030 45
2011-06-16 06:57:53 51°13.704 2°55.751 -999 26 14.6 101030 46
2011-06-16 06:57:58 51°13.703 2°55.749 0.1 35 14.6 101030 46
2011-06-16 06:58:03 51°13.701 2°55.747 0.1 29 14.6 101030 46
2011-06-16 06:58:08 51°13.699 2°55.745 0.3 34 14.6 101030 46
2011-06-16 06:58:12 51°13.697 2°55.743 0.9 23 14.6 101030 45
2011-06-16 06:58:18 51°13.694 2°55.74 0.4 33 14.6 101030 45
2011-06-16 06:58:24 51°13.692 2°55.737 0.1 79 14.6 101030 44
2011-06-16 06:58:29 51°13.689 2°55.736 0.1 36 14.6 101030 44
2011-06-16 06:58:34 51°13.688 2°55.734 0.4 78 14.6 101030 46
2011-06-16 06:58:39 51°13.687 2°55.733 0.2 35 14.6 101030 46
2011-06-16 06:58:44 51°13.687 2°55.733 0.1 23 14.6 101030 46
2011-06-16 06:58:49 51°13.689 2°55.733 -999 35 14.6 101030 46
2011-06-16 06:58:54 51°13.691 2°55.732 -999 24 14.7 101030 45
2011-06-16 06:58:59 51°13.694 2°55.732 -999 255 14.7 101030 45
2011-06-16 06:59:05 51°13.699 2°55.73 -999 255 14.7 101030 46
2011-06-16 06:59:09 51°13.703 2°55.729 -999 247 14.7 101030 46
2011-06-16 06:59:14 51°13.709 2°55.727 -999 282 14.6 101030 45
2011-06-16 06:59:19 51°13.715 2°55.724 -999 35 14.6 101030 45
2011-06-16 06:59:24 51°13.722 2°55.719 -999 24 14.7 101030 46
2011-06-16 06:59:29 51°13.73 2°55.715 -999 35 14.7 101030 46
2011-06-16 06:59:33 51°13.736 2°55.711 -999 282 14.6 101030 46
2011-06-16 06:59:39 51°13.746 2°55.705 -999 35 14.6 101030 46
2011-06-16 06:59:44 51°13.755 2°55.699 -999 24 14.7 101030 46
2011-06-16 06:59:49 51°13.765 2°55.692 -999 35 14.7 101030 46
2011-06-16 06:59:54 51°13.775 2°55.685 -999 24 14.7 101030 46
2011-06-16 06:59:59 51°13.785 2°55.678 -999 321 14.7 101030 46
2011-06-16 07:00:04 51°13.795 2°55.67 -999 282 14.7 101020 46
2011-06-16 07:00:09 51°13.806 2°55.662 -999 319 14.7 101020 46
2011-06-16 07:00:14 51°13.816 2°55.654 -999 317 14.6 101030 44
2011-06-16 07:00:19 51°13.827 2°55.646 -999 324 14.6 101030 44
2011-06-16 07:00:24 51°13.838 2°55.638 -999 281 14.6 101030 45
2011-06-16 07:00:29 51°13.849 2°55.629 -999 328 14.6 101030 45
2011-06-16 07:00:34 51°13.86 2°55.62 5.1 277 14.6 101030 46
2011-06-16 07:00:39 51°13.871 2°55.611 4.5 35 14.6 101030 46
2011-06-16 07:00:44 51°13.882 2°55.602 4.4 278 14.6 101030 46
2011-06-16 07:00:49 51°13.893 2°55.593 1.3 38 14.6 101030 46
2011-06-16 07:00:54 51°13.904 2°55.584 2.1 316 14.6 101030 46
2011-06-16 07:00:59 51°13.915 2°55.576 2.5 323 14.6 101030 46
2011-06-16 07:01:04 51°13.926 2°55.568 2.4 322 14.6 101030 45
2011-06-16 07:01:09 51°13.938 2°55.56 1.6 323 14.6 101030 45
2011-06-16 07:01:14 51°13.949 2°55.553 2.6 279 14.6 101020 45
2011-06-16 07:01:19 51°13.96 2°55.546 2.9 318 14.6 101020 45
2011-06-16 07:01:24 51°13.971 2°55.539 1 320 14.6 101020 45
2011-06-16 07:01:29 51°13.983 2°55.531 3.1 319 14.6 101020 45
2011-06-16 07:01:34 51°13.994 2°55.524 2.9 277 14.6 101030 47
2011-06-16 07:01:39 51°14.005 2°55.516 2.8 317 14.6 101030 47
2011-06-16 07:01:44 51°14.016 2°55.508 2.6 316 14.6 101030 45
2011-06-16 07:01:49 51°14.027 2°55.5 2.1 230 14.6 101030 45
2011-06-16 07:01:55 51°14.041 2°55.49 2.2 21 14.6 101030 45
2011-06-16 07:01:59 51°14.05 2°55.484 0.1 322 14.6 101030 45
2011-06-16 07:02:04 51°14.061 2°55.475 0.1 282 14.6 101030 46
2011-06-16 07:02:09 51°14.073 2°55.467 -999 325 14.6 101030 46
2011-06-16 07:02:15 51°14.086 2°55.456 -999 281 14.6 101030 45
2011-06-16 07:02:19 51°14.096 2°55.449 -999 322 14.6 101030 45
2011-06-16 07:02:24 51°14.107 2°55.44 -999 282 14.6 101030 46
2011-06-16 07:02:29 51°14.119 2°55.431 -999 319 14.6 101030 46
2011-06-16 07:02:34 51°14.131 2°55.423 -999 315 14.7 101020 46
2011-06-16 07:02:39 51°14.142 2°55.414 -999 321 14.7 101020 46
2011-06-16 07:02:44 51°14.154 2°55.405 -999 281 14.6 101020 46
2011-06-16 07:02:50 51°14.168 2°55.395 -999 330 14.6 101020 46
2011-06-16 07:02:54 51°14.178 2°55.388 -999 327 14.7 101020 44
2011-06-16 07:02:59 51°14.19 2°55.38 -999 321 14.7 101020 44
2011-06-16 07:03:04 51°14.202 2°55.371 -999 282 14.6 101020 46
2011-06-16 07:03:09 51°14.214 2°55.363 -999 320 14.6 101020 46
2011-06-16 07:03:14 51°14.226 2°55.354 -999 321 14.7 101020 46
2011-06-16 07:03:19 51°14.237 2°55.345 -999 35 14.7 101020 46
2011-06-16 07:03:23 51°14.247 2°55.338 -999 24 14.7 101020 44
2011-06-16 07:03:29 51°14.261 2°55.326 -999 35 14.7 101020 44
2011-06-16 07:03:34 51°14.272 2°55.316 -999 323 14.7 101020 46
2011-06-16 07:03:39 51°14.284 2°55.305 -999 320 14.7 101020 46
2011-06-16 07:03:44 51°14.295 2°55.294 -999 318 14.7 101020 46
2011-06-16 07:03:49 51°14.307 2°55.283 -999 35 14.7 101020 46
2011-06-16 07:03:55 51°14.32 2°55.268 -999 24 14.7 101020 46
2011-06-16 07:04:00 51°14.332 2°55.257 -999 35 14.7 101020 46
2011-06-16 07:04:04 51°14.341 2°55.247 -999 24 14.6 101020 46
2011-06-16 07:04:09 51°14.352 2°55.234 -999 35 14.6 101020 46
2011-06-16 07:04:14 51°14.364 2°55.221 -999 24 14.7 101010 46
2011-06-16 07:04:19 51°14.375 2°55.207 -999 35 14.7 101010 46
2011-06-16 07:04:24 51°14.386 2°55.194 -999 282 14.6 101010 46
2011-06-16 07:04:29 51°14.398 2°55.18 -999 318 14.6 101010 46
2011-06-16 07:04:34 51°14.409 2°55.166 -999 282 14.6 101020 45
2011-06-16 07:04:39 51°14.42 2°55.151 -999 35 14.6 101020 45
2011-06-16 07:04:44 51°14.431 2°55.136 -999 282 14.6 101010 46
2011-06-16 07:04:49 51°14.443 2°55.121 -999 35 14.6 101010 46
2011-06-16 07:04:54 51°14.454 2°55.106 -999 24 14.6 101010 46
2011-06-16 07:04:59 51°14.465 2°55.091 -999 35 14.6 101010 46
2011-06-16 07:05:04 51°14.477 2°55.076 -999 282 14.6 101010 45
2011-06-16 07:05:08 51°14.486 2°55.064 -999 35 14.6 101010 45
2011-06-16 07:05:13 51°14.497 2°55.049 -999 24 14.6 101010 45
2011-06-16 07:05:18 51°14.509 2°55.033 -999 35 14.6 101010 45
2011-06-16 07:05:23 51°14.52 2°55.017 -999 282 14.6 101010 46
2011-06-16 07:05:28 51°14.532 2°55.001 -999 35 14.6 101010 46
2011-06-16 07:05:32 51°14.54 2°54.986 -999 24 14.6 101010 44
2011-06-16 07:05:38 51°14.553 2°54.964 -999 35 14.6 101010 44
2011-06-16 07:05:43 51°14.565 2°54.946 -999 24 14.6 101010 46
2011-06-16 07:05:48 51°14.577 2°54.929 -999 35 14.6 101010 46
2011-06-16 07:05:53 51°14.589 2°54.911 -999 24 14.6 101000 46
2011-06-16 07:05:57 51°14.599 2°54.899 -999 35 14.6 101000 46
2011-06-16 07:06:02 51°14.613 2°54.884 -999 24 14.6 101000 46
2011-06-16 07:06:07 51°14.627 2°54.87 -999 35 14.6 101000 46
2011-06-16 07:06:13 51°14.645 2°54.853 -999 24 14.6 101010 46
2011-06-16 07:06:17 51°14.656 2°54.841 -999 35 14.6 101010 46
2011-06-16 07:06:22 51°14.671 2°54.826 -999 24 14.7 101000 46
2011-06-16 07:06:27 51°14.686 2°54.811 -999 35 14.7 101000 46
2011-06-16 07:06:32 51°14.701 2°54.795 -999 282 14.6 101000 46
2011-06-16 07:06:37 51°14.715 2°54.778 -999 35 14.6 101000 46
2011-06-16 07:06:41 51°14.726 2°54.764 -999 24 14.6 101000 45
2011-06-16 07:06:46 51°14.74 2°54.747 -999 35 14.6 101000 45
2011-06-16 07:06:51 51°14.755 2°54.73 -999 24 14.6 101000 46
2011-06-16 07:06:56 51°14.769 2°54.713 -999 35 14.6 101000 46
2011-06-16 07:07:01 51°14.784 2°54.697 -999 282 14.6 101000 46
2011-06-16 07:07:05 51°14.796 2°54.684 -999 35 14.6 101000 46
2011-06-16 07:07:10 51°14.811 2°54.668 -999 24 14.6 101000 46
2011-06-16 07:07:16 51°14.829 2°54.648 -999 35 14.6 101000 46
2011-06-16 07:07:21 51°14.844 2°54.633 -999 24 14.6 101000 46
2011-06-16 07:07:25 51°14.856 2°54.62 -999 35 14.6 101000 46
2011-06-16 07:07:30 51°14.871 2°54.605 -999 24 14.6 101000 45
2011-06-16 07:07:36 51°14.889 2°54.586 -999 35 14.6 101000 45
2011-06-16 07:07:41 51°14.904 2°54.57 -999 24 14.6 101000 45
2011-06-16 07:07:45 51°14.916 2°54.558 -999 35 14.6 101000 45
2011-06-16 07:07:50 51°14.931 2°54.542 -999 24 14.6 101000 46
2011-06-16 07:07:55 51°14.946 2°54.527 -999 35 14.6 101000 46
2011-06-16 07:08:00 51°14.961 2°54.512 -999 24 14.7 101000 46
2011-06-16 07:08:05 51°14.976 2°54.497 -999 35 14.7 101000 46
2011-06-16 07:08:11 51°14.994 2°54.478 -999 282 14.6 101000 44
2011-06-16 07:08:16 51°15.008 2°54.462 -999 35 14.6 101000 44
2011-06-16 07:08:21 51°15.023 2°54.446 -999 24 14.6 101000 45
2011-06-16 07:08:26 51°15.038 2°54.431 -999 35 14.6 101000 45
2011-06-16 07:08:30 51°15.05 2°54.418 -999 282 14.7 101000 46
2011-06-16 07:08:36 51°15.067 2°54.398 -999 35 14.7 101000 46
2011-06-16 07:08:41 51°15.082 2°54.381 -999 24 14.6 101000 46
2011-06-16 07:08:46 51°15.096 2°54.364 -999 35 14.6 101000 46
2011-06-16 07:08:51 51°15.11 2°54.346 -999 24 14.6 101000 46
2011-06-16 07:08:56 51°15.124 2°54.329 -999 35 14.6 101000 46
2011-06-16 07:09:01 51°15.138 2°54.31 -999 282 14.7 101000 46
2011-06-16 07:09:06 51°15.152 2°54.292 -999 35 14.7 101000 46
2011-06-16 07:09:10 51°15.163 2°54.278 -999 24 14.7 101000 46
2011-06-16 07:09:16 51°15.179 2°54.255 -999 35 14.7 101000 46
2011-06-16 07:09:21 51°15.193 2°54.237 -999 24 14.7 101000 46
2011-06-16 07:09:26 51°15.207 2°54.218 -999 35 14.7 101000 46
2011-06-16 07:09:30 51°15.218 2°54.204 -999 24 14.7 101000 46
2011-06-16 07:09:36 51°15.235 2°54.183 -999 35 14.7 101000 46
2011-06-16 07:09:41 51°15.249 2°54.166 -999 282 14.7 101000 46
2011-06-16 07:09:46 51°15.264 2°54.149 7.8 232 14.7 101000 46
2011-06-16 07:09:50 51°15.275 2°54.135 9.5 27 14.7 101000 46
2011-06-16 07:09:55 51°15.29 2°54.119 9.5 37 14.7 101000 46
2011-06-16 07:10:01 51°15.308 2°54.1 9.8 281 14.7 101000 46
2011-06-16 07:10:06 51°15.322 2°54.084 9.1 36 14.7 101000 46
2011-06-16 07:10:11 51°15.337 2°54.068 10.6 23 14.7 100990 46
2011-06-16 07:10:16 51°15.351 2°54.051 7.6 35 14.7 100990 46
2011-06-16 07:10:21 51°15.366 2°54.034 9.1 19 14.7 100990 45
2011-06-16 07:10:26 51°15.38 2°54.017 10.7 38 14.7 100990 45
2011-06-16 07:10:31 51°15.394 2°53.999 10 23 14.7 100990 46
2011-06-16 07:10:36 51°15.408 2°53.981 10.5 36 14.7 100990 46
2011-06-16 07:10:41 51°15.422 2°53.963 9.9 283 14.7 100990 45
2011-06-16 07:10:46 51°15.435 2°53.944 10.6 36 14.7 100990 45
2011-06-16 07:10:51 51°15.449 2°53.926 9.7 26 14.7 100990 44
2011-06-16 07:10:56 51°15.462 2°53.907 8.9 38 14.7 100990 44
2011-06-16 07:11:01 51°15.476 2°53.887 10.9 24 14.7 100980 45
2011-06-16 07:11:06 51°15.489 2°53.869 9.7 32 14.7 100980 45
2011-06-16 07:11:11 51°15.503 2°53.85 9 20 14.7 100990 46
2011-06-16 07:11:16 51°15.516 2°53.831 10.6 31 14.7 100990 46
2011-06-16 07:11:21 51°15.53 2°53.812 5 19 14.7 100980 44
2011-06-16 07:11:26 51°15.543 2°53.794 11.3 36 14.7 100980 44
2011-06-16 07:11:30 51°15.555 2°53.779 10.5 25 14.7 100990 46
2011-06-16 07:11:35 51°15.568 2°53.76 10.8 36 14.7 100990 46
2011-06-16 07:11:41 51°15.584 2°53.738 9.5 282 14.7 100980 45
2011-06-16 07:11:46 51°15.598 2°53.719 9.4 33 14.7 100980 45
2011-06-16 07:11:50 51°15.609 2°53.704 11 20 14.8 100990 46
2011-06-16 07:11:55 51°15.623 2°53.686 9.9 34 14.8 100990 46
2011-06-16 07:12:01 51°15.639 2°53.664 9.1 280 14.8 100980 46
2011-06-16 07:12:06 51°15.654 2°53.647 9.6 34 14.8 100980 46
2011-06-16 07:12:10 51°15.665 2°53.634 11.1 23 14.8 100980 45
2011-06-16 07:12:16 51°15.682 2°53.613 10.3 37 14.8 100980 45
2011-06-16 07:12:20 51°15.694 2°53.601 10.4 27 14.8 100990 45
2011-06-16 07:12:26 51°15.711 2°53.581 9.7 233 14.8 100990 45
2011-06-16 07:12:30 51°15.723 2°53.567 10.3 26 14.8 100990 45
2011-06-16 07:12:36 51°15.741 2°53.547 11.5 31 14.8 100990 45
2011-06-16 07:12:41 51°15.755 2°53.531 10.3 23 14.8 100990 45
2011-06-16 07:12:47 51°15.772 2°53.51 11.5 32 14.8 100990 45
2011-06-16 07:12:51 51°15.783 2°53.496 11.2 25 14.8 100990 45
2011-06-16 07:12:56 51°15.797 2°53.478 10 35 14.8 100990 45
2011-06-16 07:13:01 51°15.811 2°53.459 10.6 25 14.8 100990 45
2011-06-16 07:13:06 51°15.824 2°53.44 8.7 31 14.8 100990 45
2011-06-16 07:13:11 51°15.837 2°53.422 10.1 282 14.8 100990 46
2011-06-16 07:13:16 51°15.851 2°53.402 8.8 34 14.8 100990 46
2011-06-16 07:13:21 51°15.864 2°53.383 9.8 281 14.8 100980 46
2011-06-16 07:13:26 51°15.878 2°53.365 8.5 34 14.8 100980 46
2011-06-16 07:13:31 51°15.891 2°53.346 9.5 22 14.8 100980 44
2011-06-16 07:13:35 51°15.902 2°53.331 10.1 236 14.8 100980 44
2011-06-16 07:13:41 51°15.919 2°53.311 8.9 279 14.8 100980 45
2011-06-16 07:13:46 51°15.934 2°53.295 10.4 234 14.8 100980 45
2011-06-16 07:13:51 51°15.948 2°53.28 9.2 28 14.8 100990 46
2011-06-16 07:13:56 51°15.963 2°53.264 10 236 14.8 100990 46
2011-06-16 07:14:01 51°15.978 2°53.25 9.7 285 14.9 100990 45
2011-06-16 07:14:06 51°15.993 2°53.236 9.3 237 14.9 100990 45
2011-06-16 07:14:11 51°16.008 2°53.222 9.2 27 14.9 100990 46
2011-06-16 07:14:16 51°16.024 2°53.209 10 240 14.9 100990 46
2011-06-16 07:14:21 51°16.039 2°53.195 10.4 281 14.8 100990 46
2011-06-16 07:14:26 51°16.054 2°53.181 8.4 236 14.8 100990 46
2011-06-16 07:14:31 51°16.07 2°53.167 8.4 23 14.8 100990 45
2011-06-16 07:14:36 51°16.085 2°53.153 10.2 239 14.8 100990 45
2011-06-16 07:14:40 51°16.097 2°53.141 11.8 285 14.9 100990 45
2011-06-16 07:14:45 51°16.111 2°53.126 5.4 238 14.9 100990 45
2011-06-16 07:14:51 51°16.129 2°53.108 8.9 26 14.9 100990 46
2011-06-16 07:14:56 51°16.144 2°53.092 10.3 32 14.9 100990 46
2011-06-16 07:15:00 51°16.155 2°53.079 9.7 280 14.9 100990 46
2011-06-16 07:15:05 51°16.17 2°53.063 11 238 14.9 100990 46
2011-06-16 07:15:10 51°16.186 2°53.045 9 281 14.9 100990 46
2011-06-16 07:15:16 51°16.203 2°53.025 10.2 239 14.9 100990 46
2011-06-16 07:15:21 51°16.218 2°53.009 11.9 281 14.9 100990 46
2011-06-16 07:15:26 51°16.232 2°52.993 10.8 239 14.9 100990 46
2011-06-16 07:15:31 51°16.247 2°52.978 11 280 14.9 100990 46
2011-06-16 07:15:36 51°16.262 2°52.963 9.6 238 14.9 100990 46
2011-06-16 07:15:41 51°16.278 2°52.95 10.7 279 14.9 100990 45
2011-06-16 07:15:46 51°16.293 2°52.937 9.7 241 14.9 100990 45
2011-06-16 07:15:51 51°16.308 2°52.924 8.5 26 14.8 100990 46
2011-06-16 07:15:56 51°16.324 2°52.911 10.8 240 14.8 100990 46
2011-06-16 07:16:01 51°16.338 2°52.9 8.9 282 14.8 100990 45
2011-06-16 07:16:05 51°16.35 2°52.889 8.1 235 14.8 100990 45
2011-06-16 07:16:10 51°16.365 2°52.878 8.2 27 14.9 100990 44
2011-06-16 07:16:15 51°16.381 2°52.869 9.5 238 14.9 100990 44
2011-06-16 07:16:20 51°16.398 2°52.857 9.3 279 14.9 101000 46
2011-06-16 07:16:25 51°16.414 2°52.846 8.6 238 14.9 101000 46
2011-06-16 07:16:29 51°16.427 2°52.838 8.6 281 14.9 101000 45
2011-06-16 07:16:36 51°16.449 2°52.823 9.7 238 14.9 101000 45
2011-06-16 07:16:41 51°16.465 2°52.812 9.7 284 14.9 101000 44
2011-06-16 07:16:46 51°16.481 2°52.803 9.5 240 14.9 101000 44
2011-06-16 07:16:50 51°16.494 2°52.795 9.7 27 14.9 101000 45
2011-06-16 07:16:56 51°16.513 2°52.783 11 240 14.9 101000 45
2011-06-16 07:17:00 51°16.525 2°52.775 9.5 27 14.9 101000 45
2011-06-16 07:17:06 51°16.544 2°52.761 11.3 30 14.9 101000 45
2011-06-16 07:17:11 51°16.56 2°52.75 9 24 14.9 101000 45
2011-06-16 07:17:16 51°16.576 2°52.737 9.9 235 14.9 101000 45
2011-06-16 07:17:21 51°16.592 2°52.725 10.5 281 14.9 101000 45
2011-06-16 07:17:26 51°16.607 2°52.713 9.9 240 14.9 101000 45
2011-06-16 07:17:30 51°16.62 2°52.704 9.8 284 14.9 101000 45
2011-06-16 07:17:35 51°16.635 2°52.693 9.8 243 14.9 101000 45
2011-06-16 07:17:40 51°16.651 2°52.682 8.8 282 14.9 101000 46
2011-06-16 07:17:46 51°16.67 2°52.671 9 242 14.9 101000 46
2011-06-16 07:17:50 51°16.683 2°52.663 8.6 20 14.9 101000 45
2011-06-16 07:17:55 51°16.699 2°52.654 9.4 244 14.9 101000 45
2011-06-16 07:18:01 51°16.719 2°52.644 8.5 279 14.9 101000 46
2011-06-16 07:18:06 51°16.735 2°52.637 9.2 245 14.9 101000 46
2011-06-16 07:18:10 51°16.748 2°52.63 8.3 25 14.9 101000 45
2011-06-16 07:18:16 51°16.767 2°52.621 7.8 244 14.9 101000 45
2011-06-16 07:18:20 51°16.779 2°52.615 8.4 281 14.9 101000 45
2011-06-16 07:18:25 51°16.795 2°52.607 9 243 14.9 101000 45
2011-06-16 07:18:31 51°16.814 2°52.597 8.7 279 14.9 101000 45
2011-06-16 07:18:35 51°16.826 2°52.589 8.2 239 14.9 101000 45
2011-06-16 07:18:41 51°16.845 2°52.578 9.6 280 14.9 101000 45
2011-06-16 07:18:46 51°16.861 2°52.567 9 239 14.9 101000 45
2011-06-16 07:18:51 51°16.877 2°52.558 8.1 21 14.9 101010 44
2011-06-16 07:18:56 51°16.892 2°52.549 8.3 241 14.9 101010 44
2011-06-16 07:19:01 51°16.908 2°52.54 8.8 282 14.9 101000 45
2011-06-16 07:19:06 51°16.924 2°52.532 8.8 244 14.9 101000 45
2011-06-16 07:19:11 51°16.94 2°52.524 8.6 280 14.9 101000 45
2011-06-16 07:19:15 51°16.953 2°52.519 9.7 245 14.9 101000 45
2011-06-16 07:19:20 51°16.969 2°52.512 9.1 246 14.9 101000 44
2011-06-16 07:19:26 51°16.989 2°52.506 7.4 246 14.9 101000 44
2011-06-16 07:19:31 51°17.005 2°52.5 7.7 282 14.9 101010 46
2011-06-16 07:19:35 51°17.018 2°52.496 8.8 244 14.9 101010 46
2011-06-16 07:19:41 51°17.037 2°52.49 7.6 285 14.9 101010 45
2011-06-16 07:19:46 51°17.054 2°52.485 8.7 240 14.9 101010 45
2011-06-16 07:19:51 51°17.07 2°52.479 8.4 25 14.9 101000 46
2011-06-16 07:19:55 51°17.082 2°52.474 7.9 244 14.9 101000 46
2011-06-16 07:20:01 51°17.102 2°52.466 9 279 14.9 101010 46
2011-06-16 07:20:06 51°17.118 2°52.459 7.6 242 14.9 101010 46
2011-06-16 07:20:11 51°17.134 2°52.451 9.7 278 14.9 101000 46
2011-06-16 07:20:16 51°17.15 2°52.444 8.4 244 14.9 101000 46
2011-06-16 07:20:21 51°17.166 2°52.436 7.8 281 15 101010 46
2011-06-16 07:20:26 51°17.182 2°52.428 9.6 244 15 101010 46
2011-06-16 07:20:31 51°17.198 2°52.419 7.8 285 14.9 101000 46
2011-06-16 07:20:35 51°17.211 2°52.412 8 241 14.9 101000 46
2011-06-16 07:20:41 51°17.23 2°52.402 4.4 280 14.9 101000 45
2011-06-16 07:20:46 51°17.246 2°52.393 8.2 237 14.9 101000 45
2011-06-16 07:20:51 51°17.262 2°52.385 8.5 21 14.9 101000 45
2011-06-16 07:20:55 51°17.275 2°52.38 7.2 243 14.9 101000 45
2011-06-16 07:21:01 51°17.295 2°52.375 8.1 285 14.9 101010 45
2011-06-16 07:21:06 51°17.311 2°52.371 7.6 244 14.9 101010 45
2011-06-16 07:21:11 51°17.327 2°52.369 8.3 280 14.9 101000 45
2011-06-16 07:21:15 51°17.34 2°52.368 6.5 244 14.9 101000 45
2011-06-16 07:21:21 51°17.36 2°52.368 6.8 284 14.9 101000 45
2011-06-16 07:21:26 51°17.376 2°52.369 6.9 242 14.9 101000 45
2011-06-16 07:21:31 51°17.393 2°52.37 6.7 285 14.9 101010 44
2011-06-16 07:21:35 51°17.406 2°52.372 6.7 247 14.9 101010 44
2011-06-16 07:21:40 51°17.422 2°52.374 6.7 247 14.9 101000 46
2011-06-16 07:21:46 51°17.441 2°52.378 6.5 249 14.9 101000 46
2011-06-16 07:21:51 51°17.457 2°52.381 5.8 248 14.9 101010 45
2011-06-16 07:21:55 51°17.47 2°52.386 5.6 251 14.9 101010 45
2011-06-16 07:22:00 51°17.486 2°52.394 4.9 253 14.9 101010 44
2011-06-16 07:22:06 51°17.504 2°52.405 3.7 249 14.9 101010 44
2011-06-16 07:22:11 51°17.518 2°52.415 3.9 278 14.9 101010 45
2011-06-16 07:22:15 51°17.529 2°52.424 4.1 254 14.9 101010 45
2011-06-16 07:22:20 51°17.544 2°52.435 4.4 250 14.9 101020 44
2011-06-16 07:22:25 51°17.558 2°52.448 3.5 254 14.9 101020 44
2011-06-16 07:22:30 51°17.572 2°52.46 3.4 281 14.9 101020 44
2011-06-16 07:22:36 51°17.588 2°52.476 3.8 255 14.9 101020 44
2011-06-16 07:22:41 51°17.602 2°52.49 4 257 14.9 101020 44
2011-06-16 07:22:46 51°17.616 2°52.504 3.2 258 14.9 101020 44
2011-06-16 07:22:51 51°17.629 2°52.519 2.4 261 14.9 101020 46
2011-06-16 07:22:56 51°17.642 2°52.534 1.9 261 14.9 101020 46
2011-06-16 07:23:00 51°17.652 2°52.546 3 285 14.9 101020 45
2011-06-16 07:23:06 51°17.668 2°52.565 0.5 264 14.9 101020 45
2011-06-16 07:23:11 51°17.68 2°52.581 0.3 260 14.9 101020 45
2011-06-16 07:23:15 51°17.69 2°52.594 0.1 259 14.9 101020 45
2011-06-16 07:23:20 51°17.703 2°52.611 0.1 260 14.9 101020 46
2011-06-16 07:23:25 51°17.715 2°52.628 -999 265 14.9 101020 46
2011-06-16 07:23:31 51°17.73 2°52.648 -999 262 14.9 101020 44
2011-06-16 07:23:36 51°17.742 2°52.666 -999 258 14.9 101020 44
2011-06-16 07:23:40 51°17.751 2°52.68 -999 282 14.9 101020 45
2011-06-16 07:23:44 51°17.761 2°52.694 -999 266 14.9 101020 45
2011-06-16 07:23:51 51°17.778 2°52.718 -999 265 14.9 101030 45
2011-06-16 07:23:56 51°17.79 2°52.735 -999 264 14.9 101030 45
2011-06-16 07:24:01 51°17.802 2°52.752 1 283 14.9 101020 45
2011-06-16 07:24:05 51°17.811 2°52.766 0.3 266 14.9 101020 45
2011-06-16 07:24:10 51°17.823 2°52.782 0.2 282 14.9 101030 44
2011-06-16 07:24:16 51°17.838 2°52.803 0.1 261 14.9 101030 44
2011-06-16 07:24:21 51°17.85 2°52.819 0.1 261 14.9 101030 45
2011-06-16 07:24:25 51°17.86 2°52.834 -999 264 14.9 101030 45
2011-06-16 07:24:31 51°17.875 2°52.854 -999 282 14.9 101020 45
2011-06-16 07:24:36 51°17.887 2°52.872 -999 254 14.9 101020 45
2011-06-16 07:24:41 51°17.898 2°52.89 -999 282 14.9 101030 44
2011-06-16 07:24:45 51°17.907 2°52.905 -999 259 14.9 101030 44
2011-06-16 07:24:51 51°17.921 2°52.928 -999 270 14.9 101020 45
2011-06-16 07:24:56 51°17.932 2°52.947 0.1 35 14.9 101020 45
2011-06-16 07:25:01 51°17.943 2°52.966 0.1 79 15 101030 45
2011-06-16 07:25:05 51°17.952 2°52.981 -999 35 15 101030 45
2011-06-16 07:25:11 51°17.966 2°53.003 -999 24 14.9 101030 45
2011-06-16 07:25:16 51°17.976 2°53.022 -999 35 14.9 101030 45
2011-06-16 07:25:21 51°17.988 2°53.039 -999 79 14.9 101020 45
2011-06-16 07:25:26 51°18 2°53.058 -999 36 14.9 101020 45
2011-06-16 07:25:31 51°18.012 2°53.075 -999 264 14.9 101030 45
2011-06-16 07:25:36 51°18.024 2°53.093 0.1 261 14.9 101030 45
2011-06-16 07:25:40 51°18.033 2°53.106 0.1 244 14.9 101030 46
2011-06-16 07:25:46 51°18.046 2°53.127 0.1 263 14.9 101030 46
2011-06-16 07:25:51 51°18.059 2°53.143 0.1 262 15 101020 45
2011-06-16 07:25:56 51°18.071 2°53.16 -999 247 15 101020 45
2011-06-16 07:26:00 51°18.081 2°53.173 -999 24 14.9 101020 44
2011-06-16 07:26:06 51°18.095 2°53.194 0.1 247 14.9 101020 44
2011-06-16 07:26:10 51°18.105 2°53.207 0.4 282 14.9 101020 45
2011-06-16 07:26:15 51°18.118 2°53.224 0.1 250 14.9 101020 45
2011-06-16 07:26:20 51°18.13 2°53.24 0.1 250 14.9 101020 45
2011-06-16 07:26:26 51°18.144 2°53.262 0.2 260 14.9 101020 45
2011-06-16 07:26:31 51°18.156 2°53.279 0.1 282 14.9 101020 47
2011-06-16 07:26:36 51°18.167 2°53.297 0.1 268 14.9 101020 47
2011-06-16 07:26:41 51°18.179 2°53.315 0.1 282 15 101020 46
2011-06-16 07:26:46 51°18.19 2°53.334 0.1 268 15 101020 46
2011-06-16 07:26:51 51°18.201 2°53.352 0.1 268 15 101020 44
2011-06-16 07:26:55 51°18.21 2°53.367 -999 270 15 101020 44
2011-06-16 07:27:01 51°18.222 2°53.391 -999 282 15 101020 45
2011-06-16 07:27:06 51°18.233 2°53.41 -999 270 15 101020 45
2011-06-16 07:27:11 51°18.244 2°53.429 -999 270 15 101020 45
2011-06-16 07:27:16 51°18.255 2°53.448 -999 266 15 101020 45
2011-06-16 07:27:21 51°18.265 2°53.467 0.1 282 15 101020 44
2011-06-16 07:27:26 51°18.277 2°53.485 0.1 264 15 101020 44
2011-06-16 07:27:31 51°18.288 2°53.503 0.1 282 15 101020 46
2011-06-16 07:27:36 51°18.3 2°53.52 -999 268 15 101020 46
2011-06-16 07:27:41 51°18.312 2°53.538 -999 79 15 101020 44
2011-06-16 07:27:46 51°18.323 2°53.556 -999 270 15 101020 44
2011-06-16 07:27:51 51°18.335 2°53.573 -999 269 15 101020 45
2011-06-16 07:27:55 51°18.345 2°53.587 -999 264 15 101020 45
2011-06-16 07:28:01 51°18.359 2°53.607 -999 282 15 101020 45
2011-06-16 07:28:06 51°18.371 2°53.623 0.1 256 15 101020 45
2011-06-16 07:28:11 51°18.383 2°53.64 0.1 282 15 101020 45
2011-06-16 07:28:15 51°18.393 2°53.654 0.1 253 15 101020 45
2011-06-16 07:28:21 51°18.407 2°53.674 0.1 262 15 101020 45
2011-06-16 07:28:26 51°18.419 2°53.692 -999 262 15 101020 45
2011-06-16 07:28:31 51°18.43 2°53.71 -999 282 15 101020 45
2011-06-16 07:28:36 51°18.441 2°53.728 -999 248 15 101020 45
2011-06-16 07:28:41 51°18.453 2°53.747 -999 248 15 101020 45
2011-06-16 07:28:46 51°18.463 2°53.765 -999 259 15 101020 45
2011-06-16 07:28:51 51°18.474 2°53.784 -999 266 15 101030 45
2011-06-16 07:28:55 51°18.483 2°53.799 0.1 266 15 101030 45
2011-06-16 07:29:01 51°18.496 2°53.822 0.1 266 15 101020 45
2011-06-16 07:29:06 51°18.507 2°53.841 0.1 266 15 101020 45
2011-06-16 07:29:11 51°18.517 2°53.86 -999 282 15 101020 45
2011-06-16 07:29:15 51°18.525 2°53.876 -999 268 15 101020 45
2011-06-16 07:29:21 51°18.537 2°53.9 -999 282 15 101020 45
2011-06-16 07:29:26 51°18.547 2°53.921 -999 40 15 101020 45
2011-06-16 07:29:31 51°18.556 2°53.941 -999 27 15 101020 44
2011-06-16 07:29:36 51°18.565 2°53.963 -999 38 15 101020 44
2011-06-16 07:29:40 51°18.572 2°53.979 -999 78 15 101030 45
2011-06-16 07:29:46 51°18.582 2°54.005 -999 36 15 101030 45
2011-06-16 07:29:51 51°18.591 2°54.027 -999 24 15 101020 45
2011-06-16 07:29:55 51°18.598 2°54.045 -999 36 15 101020 45
2011-06-16 07:30:00 51°18.606 2°54.066 -999 78 15 101020 44
2011-06-16 07:30:06 51°18.617 2°54.092 -999 36 15 101020 44
2011-06-16 07:30:11 51°18.626 2°54.113 -999 24 14.9 101020 45
2011-06-16 07:30:16 51°18.635 2°54.134 -999 36 14.9 101020 45
2011-06-16 07:30:21 51°18.644 2°54.155 -999 24 14.9 101020 45
2011-06-16 07:30:26 51°18.654 2°54.175 -999 36 14.9 101020 45
2011-06-16 07:30:31 51°18.663 2°54.195 -999 24 15 101020 45
2011-06-16 07:30:36 51°18.673 2°54.215 -999 269 15 101020 45
2011-06-16 07:30:40 51°18.681 2°54.231 -999 269 14.9 101020 45
2011-06-16 07:30:46 51°18.693 2°54.255 -999 269 14.9 101020 45
2011-06-16 07:30:51 51°18.703 2°54.275 -999 269 14.9 101020 45
2011-06-16 07:30:56 51°18.713 2°54.295 -999 41 14.9 101020 45
2011-06-16 07:31:00 51°18.721 2°54.311 0.1 78 14.9 101020 45
2011-06-16 07:31:06 51°18.733 2°54.335 0.1 35 14.9 101020 45
2011-06-16 07:31:11 51°18.743 2°54.355 -999 78 14.9 101020 45
2011-06-16 07:31:16 51°18.753 2°54.375 -999 35 14.9 101020 45
2011-06-16 07:31:21 51°18.762 2°54.396 -999 24 14.9 101020 45
2011-06-16 07:31:25 51°18.769 2°54.412 -999 35 14.9 101020 45
2011-06-16 07:31:31 51°18.781 2°54.437 -999 24 15 101020 45
2011-06-16 07:31:36 51°18.791 2°54.457 -999 35 15 101020 45
2011-06-16 07:31:40 51°18.799 2°54.473 -999 78 15 101020 45
2011-06-16 07:31:45 51°18.809 2°54.492 -999 35 15 101020 45
2011-06-16 07:31:50 51°18.819 2°54.512 -999 24 15 101020 45
2011-06-16 07:31:56 51°18.831 2°54.536 -999 35 15 101020 45
2011-06-16 07:32:00 51°18.839 2°54.552 -999 78 15 101020 45
2011-06-16 07:32:05 51°18.849 2°54.571 -999 35 15 101020 45
2011-06-16 07:32:10 51°18.859 2°54.591 -999 78 15 101020 44
2011-06-16 07:32:16 51°18.871 2°54.615 -999 41 15 101020 44
2011-06-16 07:32:20 51°18.879 2°54.631 -999 78 15 101020 45
2011-06-16 07:32:25 51°18.889 2°54.651 -999 36 15 101020 45
2011-06-16 07:32:31 51°18.901 2°54.675 -999 78 15 101020 45
2011-06-16 07:32:36 51°18.911 2°54.695 -999 36 15 101020 45
2011-06-16 07:32:40 51°18.918 2°54.712 -999 24 15 101020 44
2011-06-16 07:32:46 51°18.929 2°54.737 -999 36 15 101020 44
2011-06-16 07:32:51 51°18.938 2°54.758 -999 24 15 101020 45
2011-06-16 07:32:56 51°18.947 2°54.779 -999 267 15 101020 45
2011-06-16 07:33:00 51°18.953 2°54.796 -999 22 15 101020 45
2011-06-16 07:33:06 51°18.963 2°54.822 -999 324 15 101020 45
2011-06-16 07:33:10 51°18.97 2°54.839 -999 282 15 101020 45
2011-06-16 07:33:16 51°18.98 2°54.865 -999 317 15 101020 45
2011-06-16 07:33:20 51°18.987 2°54.882 -999 316 15 101020 45
2011-06-16 07:33:25 51°18.996 2°54.903 -999 316 15 101020 45
2011-06-16 07:33:31 51°19.006 2°54.929 -999 282 15 101020 45
2011-06-16 07:33:36 51°19.015 2°54.949 0.1 241 15 101020 45
2011-06-16 07:33:41 51°19.024 2°54.97 0.1 282 15 101020 45
2011-06-16 07:33:45 51°19.031 2°54.986 -999 265 15 101020 45
2011-06-16 07:33:51 51°19.042 2°55.01 -999 264 15 101020 45
2011-06-16 07:33:56 51°19.051 2°55.031 -999 261 15 101020 45
2011-06-16 07:34:01 51°19.06 2°55.052 -999 260 15 101020 45
2011-06-16 07:34:05 51°19.067 2°55.068 -999 267 15 101020 45
2011-06-16 07:34:10 51°19.076 2°55.089 -999 267 15.1 101020 45
2011-06-16 07:34:16 51°19.087 2°55.114 -999 268 15.1 101020 45
2011-06-16 07:34:21 51°19.095 2°55.134 -999 282 15.1 101020 45
2011-06-16 07:34:25 51°19.102 2°55.151 -999 40 15.1 101020 45
2011-06-16 07:34:30 51°19.111 2°55.171 -999 78 15.1 101020 45
2011-06-16 07:34:35 51°19.12 2°55.192 -999 35 15.1 101020 45
2011-06-16 07:34:40 51°19.129 2°55.213 -999 78 15.1 101020 45
2011-06-16 07:34:45 51°19.138 2°55.233 -999 35 15.1 101020 45
2011-06-16 07:34:51 51°19.149 2°55.257 -999 24 15.1 101020 45
2011-06-16 07:34:56 51°19.159 2°55.276 -999 268 15.1 101020 45
2011-06-16 07:35:01 51°19.168 2°55.296 -999 269 15.1 101020 45
2011-06-16 07:35:06 51°19.179 2°55.315 -999 265 15.1 101020 45
2011-06-16 07:35:10 51°19.187 2°55.329 -999 282 15.1 101010 45
2011-06-16 07:35:15 51°19.197 2°55.349 -999 265 15.1 101010 45
2011-06-16 07:35:21 51°19.21 2°55.371 -999 264 15.1 101010 44
2011-06-16 07:35:26 51°19.22 2°55.39 -999 37 15.1 101010 44
2011-06-16 07:35:30 51°19.228 2°55.404 -999 282 15.1 101020 45
2011-06-16 07:35:35 51°19.239 2°55.423 -999 263 15.1 101020 45
2011-06-16 07:35:40 51°19.249 2°55.442 -999 282 15.1 101020 45
2011-06-16 07:35:46 51°19.261 2°55.465 -999 263 15.1 101020 45
2011-06-16 07:35:50 51°19.269 2°55.479 -999 261 15.1 101020 45
2011-06-16 07:35:55 51°19.28 2°55.498 -999 245 15.1 101020 45
2011-06-16 07:36:01 51°19.29 2°55.523 -999 340 15.1 101010 45
2011-06-16 07:36:06 51°19.299 2°55.544 -999 347 15.1 101010 45
2011-06-16 07:36:11 51°19.307 2°55.565 -999 19 15.1 101020 45
2011-06-16 07:36:16 51°19.314 2°55.587 -999 20 15.1 101020 45
2011-06-16 07:36:21 51°19.32 2°55.61 -999 20 15.1 101010 45
2011-06-16 07:36:26 51°19.327 2°55.632 -999 21 15.1 101010 45
2011-06-16 07:36:30 51°19.332 2°55.65 -999 21 15.1 101020 45
2011-06-16 07:36:35 51°19.337 2°55.674 -999 25 15.1 101020 45
2011-06-16 07:36:40 51°19.343 2°55.697 -999 18 15.1 101020 45
2011-06-16 07:36:46 51°19.349 2°55.725 -999 12 15.1 101020 45
2011-06-16 07:36:51 51°19.355 2°55.748 -999 11 15.1 101020 45
2011-06-16 07:36:56 51°19.361 2°55.771 -999 10 15.1 101020 45
2011-06-16 07:37:00 51°19.366 2°55.79 -999 6 15.1 101010 45
2011-06-16 07:37:06 51°19.373 2°55.818 -999 21 15.1 101010 45
2011-06-16 07:37:11 51°19.379 2°55.841 -999 23 15.1 101020 45
2011-06-16 07:37:16 51°19.385 2°55.863 -999 12 15.1 101020 45
2011-06-16 07:37:20 51°19.39 2°55.882 -999 12 15.1 101010 45
2011-06-16 07:37:26 51°19.398 2°55.909 -999 21 15.1 101010 45
2011-06-16 07:37:30 51°19.403 2°55.928 -999 26 15.1 101020 45
2011-06-16 07:37:36 51°19.41 2°55.955 -999 24 15.1 101020 45
2011-06-16 07:37:40 51°19.415 2°55.974 0.1 28 15.1 101010 45
2011-06-16 07:37:45 51°19.421 2°55.997 0.1 27 15.1 101010 45
2011-06-16 07:37:51 51°19.428 2°56.025 0.1 27 15.1 101020 45
2011-06-16 07:37:56 51°19.434 2°56.049 -999 26 15.1 101020 45
2011-06-16 07:38:01 51°19.44 2°56.071 -999 27 15.1 101020 44
2011-06-16 07:38:05 51°19.445 2°56.09 0.4 31 15.1 101020 44
2011-06-16 07:38:11 51°19.452 2°56.118 0.1 32 15.1 101010 45
2011-06-16 07:38:16 51°19.458 2°56.141 0.1 32 15.1 101010 45
2011-06-16 07:38:21 51°19.465 2°56.163 0.1 32 15.1 101020 45
2011-06-16 07:38:25 51°19.47 2°56.181 -999 22 15.1 101020 45
2011-06-16 07:38:30 51°19.476 2°56.204 -999 28 15.1 101020 45
2011-06-16 07:38:36 51°19.484 2°56.231 -999 27 15.1 101020 45
2011-06-16 07:38:41 51°19.491 2°56.253 -999 30 15.1 101010 45
2011-06-16 07:38:46 51°19.498 2°56.275 0.1 30 15.1 101010 45
2011-06-16 07:38:51 51°19.506 2°56.297 0.1 30 15.1 101020 45
2011-06-16 07:38:56 51°19.513 2°56.319 0.1 42 15.1 101020 45
2011-06-16 07:39:01 51°19.521 2°56.34 -999 78 15.1 101010 45
2011-06-16 07:39:06 51°19.528 2°56.361 -999 45 15.1 101010 45
2011-06-16 07:39:10 51°19.534 2°56.379 -999 44 15.1 101010 45
2011-06-16 07:39:15 51°19.541 2°56.401 -999 35 15.1 101010 45
2011-06-16 07:39:21 51°19.55 2°56.427 -999 44 15.1 101010 45
2011-06-16 07:39:25 51°19.555 2°56.445 -999 42 15.1 101010 45
2011-06-16 07:39:30 51°19.561 2°56.468 -999 38 15.1 101020 45
2011-06-16 07:39:36 51°19.568 2°56.495 -999 31 15.1 101020 45
2011-06-16 07:39:41 51°19.575 2°56.518 -999 24 15.1 101020 45
2011-06-16 07:39:46 51°19.581 2°56.541 -999 28 15.1 101020 45
2011-06-16 07:39:51 51°19.587 2°56.563 0.1 21 15.1 101020 45
2011-06-16 07:39:56 51°19.593 2°56.586 0.1 23 15.1 101020 45
2011-06-16 07:40:01 51°19.599 2°56.609 0.1 23 15.1 101020 45
2011-06-16 07:40:06 51°19.605 2°56.631 -999 20 15.1 101020 45
2011-06-16 07:40:11 51°19.61 2°56.654 -999 19 15.1 101020 45
2011-06-16 07:40:15 51°19.615 2°56.673 -999 18 15.1 101020 45
2011-06-16 07:40:21 51°19.622 2°56.7 -999 20 15.1 101020 45
2011-06-16 07:40:26 51°19.627 2°56.723 -999 21 15.1 101020 45
2011-06-16 07:40:31 51°19.634 2°56.746 -999 38 15.1 101010 45
2011-06-16 07:40:35 51°19.639 2°56.764 0.1 38 15.1 101010 45
2011-06-16 07:40:40 51°19.646 2°56.786 0.1 36 15.1 101010 44
2011-06-16 07:40:45 51°19.653 2°56.808 0.1 39 15.1 101010 44
2011-06-16 07:40:51 51°19.662 2°56.834 0.1 35 15.1 101010 45
2011-06-16 07:40:55 51°19.668 2°56.852 -999 39 15.1 101010 45
2011-06-16 07:40:59 51°19.673 2°56.869 -999 29 15.1 101010 45
2011-06-16 07:41:06 51°19.684 2°56.899 -999 25 15.1 101010 45
2011-06-16 07:41:10 51°19.69 2°56.916 -999 -999 15.1 101010 45
2011-06-16 07:41:15 51°19.698 2°56.938 -999 31 15.1 101010 45
2011-06-16 07:41:21 51°19.707 2°56.964 0.1 28 15.1 101020 45
2011-06-16 07:41:26 51°19.713 2°56.986 0.2 30 15.1 101020 45
2011-06-16 07:41:31 51°19.72 2°57.008 0.1 31 15.1 101020 45
2011-06-16 07:41:36 51°19.727 2°57.03 0.1 32 15.1 101020 45
2011-06-16 07:41:40 51°19.732 2°57.049 -999 25 15.1 101010 45
2011-06-16 07:41:46 51°19.739 2°57.076 -999 28 15.1 101010 45
2011-06-16 07:41:51 51°19.745 2°57.099 -999 36 15.1 101010 45
2011-06-16 07:41:56 51°19.752 2°57.121 -999 35 15.1 101010 45
2011-06-16 07:42:00 51°19.757 2°57.139 -999 26 15.1 101010 45
2011-06-16 07:42:06 51°19.764 2°57.167 -999 20 15.1 101010 45
2011-06-16 07:42:11 51°19.771 2°57.189 0.9 36 15.1 101010 45
2011-06-16 07:42:16 51°19.777 2°57.212 0.6 38 15.1 101010 45
2011-06-16 07:42:20 51°19.783 2°57.23 0.4 35 15.1 101010 45
2011-06-16 07:42:25 51°19.789 2°57.252 0.6 36 15.1 101010 45
2011-06-16 07:42:31 51°19.797 2°57.279 0.2 37 15.1 101010 45
2011-06-16 07:42:36 51°19.803 2°57.302 0.2 40 15.1 101010 45
2011-06-16 07:42:40 51°19.809 2°57.319 0.1 40 15.1 101010 46
2011-06-16 07:42:45 51°19.816 2°57.342 0.1 45 15.1 101010 46
2011-06-16 07:42:50 51°19.823 2°57.363 0.1 42 15.1 101010 45
2011-06-16 07:42:56 51°19.832 2°57.389 -999 43 15.1 101010 45
2011-06-16 07:43:00 51°19.838 2°57.407 -999 39 15.1 101020 45
2011-06-16 07:43:05 51°19.845 2°57.428 -999 23 15.1 101020 45
2011-06-16 07:43:10 51°19.853 2°57.45 -999 27 15 101010 45
2011-06-16 07:43:16 51°19.862 2°57.476 -999 25 15 101010 45
2011-06-16 07:43:20 51°19.868 2°57.493 -999 22 15 101010 44
2011-06-16 07:43:26 51°19.877 2°57.519 -999 41 15 101010 44
2011-06-16 07:43:31 51°19.885 2°57.54 -999 38 15.1 101010 45
2011-06-16 07:43:36 51°19.892 2°57.562 -999 37 15.1 101010 45
2011-06-16 07:43:40 51°19.899 2°57.579 -999 26 15.1 101010 45
2011-06-16 07:43:45 51°19.906 2°57.601 0.1 21 15.1 101010 45
2011-06-16 07:43:51 51°19.915 2°57.627 0.1 23 15.1 101010 45
2011-06-16 07:43:56 51°19.922 2°57.649 0.1 42 15.1 101010 45
2011-06-16 07:44:00 51°19.928 2°57.666 -999 40 15.1 101010 45
2011-06-16 07:44:05 51°19.935 2°57.689 -999 28 15.1 101010 45
2011-06-16 07:44:11 51°19.943 2°57.715 0.1 27 15.1 101010 45
2011-06-16 07:44:16 51°19.95 2°57.737 0.3 29 15.1 101010 45
2011-06-16 07:44:20 51°19.956 2°57.754 0.2 29 15.1 101010 45
2011-06-16 07:44:26 51°19.964 2°57.781 0.2 33 15.1 101010 45
2011-06-16 07:44:30 51°19.97 2°57.798 0.1 34 15.1 101010 45
2011-06-16 07:44:36 51°19.978 2°57.824 -999 35 15.1 101010 45
2011-06-16 07:44:40 51°19.984 2°57.842 -999 32 15.1 101010 44
2011-06-16 07:44:45 51°19.991 2°57.864 0.1 30 15.1 101010 44
2011-06-16 07:44:50 51°19.998 2°57.886 0.1 21 15.1 101010 45
2011-06-16 07:44:56 51°20.005 2°57.913 0.1 28 15.1 101010 45
2011-06-16 07:45:00 51°20.011 2°57.931 0.6 34 15.1 101010 45
2011-06-16 07:45:05 51°20.016 2°57.954 0.1 34 15.1 101010 45
2011-06-16 07:45:10 51°20.023 2°57.976 0.2 27 15.1 101010 45
2011-06-16 07:45:16 51°20.029 2°58.003 0.1 29 15.1 101010 45
2011-06-16 07:45:21 51°20.036 2°58.026 -999 23 15.1 101010 44
2011-06-16 07:45:26 51°20.04 2°58.049 0.7 18 15.1 101010 44
2011-06-16 07:45:31 51°20.046 2°58.072 0.6 24 15.1 101010 45
2011-06-16 07:45:36 51°20.052 2°58.094 1.2 32 15.1 101010 45
2011-06-16 07:45:41 51°20.057 2°58.118 0.9 33 15.1 101010 45
2011-06-16 07:45:46 51°20.063 2°58.14 0.4 33 15.1 101010 45
2011-06-16 07:45:51 51°20.068 2°58.164 0.2 36 15.1 101010 45
2011-06-16 07:45:56 51°20.073 2°58.186 0.1 33 15.1 101010 45
2011-06-16 07:46:01 51°20.079 2°58.209 -999 36 15.1 101010 43
2011-06-16 07:46:05 51°20.083 2°58.227 -999 25 15.1 101010 43
2011-06-16 07:46:10 51°20.09 2°58.25 -999 35 15 101010 45
2011-06-16 07:46:16 51°20.097 2°58.276 -999 36 15 101010 45
2011-06-16 07:46:20 51°20.103 2°58.294 -999 42 15.1 101010 45
2011-06-16 07:46:25 51°20.11 2°58.316 -999 37 15.1 101010 45
2011-06-16 07:46:30 51°20.117 2°58.338 -999 44 15.1 101010 45
2011-06-16 07:46:36 51°20.126 2°58.364 -999 43 15.1 101010 45
2011-06-16 07:46:41 51°20.133 2°58.385 -999 36 15.1 101010 45
2011-06-16 07:46:45 51°20.139 2°58.403 -999 35 15.1 101010 45
2011-06-16 07:46:51 51°20.148 2°58.428 -999 24 15.1 101010 45
2011-06-16 07:46:55 51°20.154 2°58.446 -999 35 15.1 101010 45
2011-06-16 07:47:01 51°20.163 2°58.471 -999 24 15.1 101000 45
2011-06-16 07:47:05 51°20.169 2°58.489 -999 44 15.1 101000 45
2011-06-16 07:47:11 51°20.178 2°58.515 -999 78 15 101010 45
2011-06-16 07:47:16 51°20.184 2°58.536 -999 35 15 101010 45
2011-06-16 07:47:21 51°20.192 2°58.558 -999 78 15 101010 45
2011-06-16 07:47:26 51°20.199 2°58.58 -999 35 15 101010 45
2011-06-16 07:47:30 51°20.204 2°58.598 -999 78 15 101010 45
2011-06-16 07:47:36 51°20.211 2°58.625 -999 35 15 101010 45
2011-06-16 07:47:41 51°20.216 2°58.648 0.7 43 15 101010 45
2011-06-16 07:47:46 51°20.222 2°58.671 0.1 38 15 101010 45
2011-06-16 07:47:51 51°20.228 2°58.694 0.1 32 15 101010 45
2011-06-16 07:47:56 51°20.234 2°58.717 0.1 25 15 101010 45
2011-06-16 07:48:01 51°20.239 2°58.74 0.8 31 15 101000 44
2011-06-16 07:48:06 51°20.245 2°58.763 0.3 33 15 101000 44
2011-06-16 07:48:10 51°20.249 2°58.782 0.2 33 15 101000 43
2011-06-16 07:48:16 51°20.256 2°58.809 0.7 32 15 101000 43
2011-06-16 07:48:21 51°20.262 2°58.832 0.1 35 15 101010 45
2011-06-16 07:48:26 51°20.268 2°58.855 0.1 35 15 101010 45
2011-06-16 07:48:30 51°20.273 2°58.873 0.1 40 15 101010 45
2011-06-16 07:48:36 51°20.28 2°58.9 0.1 35 15 101010 45
2011-06-16 07:48:41 51°20.287 2°58.922 -999 40 15 101010 45
2011-06-16 07:48:46 51°20.295 2°58.944 -999 23 15 101000 45
2011-06-16 07:48:51 51°20.302 2°58.966 -999 -999 15 101000 45
2011-06-16 07:48:56 51°20.308 2°58.988 -999 28 15 101000 45
2011-06-16 07:49:00 51°20.313 2°59.006 -999 34 15 101010 45
2011-06-16 07:49:05 51°20.319 2°59.029 -999 28 15 101010 45
2011-06-16 07:49:11 51°20.327 2°59.056 0.1 25 15 101010 45
2011-06-16 07:49:15 51°20.332 2°59.074 0.1 24 15 101010 45
2011-06-16 07:49:21 51°20.34 2°59.101 0.2 31 15 101000 45
2011-06-16 07:49:26 51°20.346 2°59.124 0.2 33 15 101000 45
2011-06-16 07:49:31 51°20.352 2°59.147 0.1 32 15 101000 45
2011-06-16 07:49:36 51°20.358 2°59.169 -999 32 15 101000 45
2011-06-16 07:49:40 51°20.364 2°59.187 -999 24 15 101000 45
2011-06-16 07:49:46 51°20.372 2°59.214 -999 25 15 101000 45
2011-06-16 07:49:51 51°20.379 2°59.235 -999 32 15 101010 45
2011-06-16 07:49:56 51°20.387 2°59.258 -999 35 15 101000 45
2011-06-16 07:50:00 51°20.393 2°59.275 -999 31 15 101000 45
2011-06-16 07:50:05 51°20.4 2°59.297 -999 32 15 101000 45
2011-06-16 07:50:10 51°20.407 2°59.32 -999 32 15 101000 45
2011-06-16 07:50:16 51°20.415 2°59.347 -999 35 15 101000 45
2011-06-16 07:50:20 51°20.42 2°59.365 -999 37 15 101000 45
2011-06-16 07:50:25 51°20.426 2°59.388 0.8 37 15 101000 45
2011-06-16 07:50:30 51°20.432 2°59.411 0.2 35 15 101010 45
2011-06-16 07:50:36 51°20.44 2°59.438 0.1 34 15 101010 45
2011-06-16 07:50:41 51°20.445 2°59.462 1.3 31 15 101010 45
2011-06-16 07:50:46 51°20.451 2°59.485 0.6 29 15.1 101010 44
2011-06-16 07:50:51 51°20.456 2°59.509 0.4 30 15.1 101010 44
2011-06-16 07:50:56 51°20.461 2°59.533 0.1 28 15.1 101010 44
2011-06-16 07:51:01 51°20.466 2°59.557 0.2 29 15 101010 45
2011-06-16 07:51:05 51°20.469 2°59.577 0.2 33 15 101010 45
2011-06-16 07:51:11 51°20.475 2°59.605 0.1 34 15 101000 45
2011-06-16 07:51:16 51°20.478 2°59.63 0.1 35 15 101000 45
2011-06-16 07:51:21 51°20.483 2°59.654 -999 39 15 101010 45
2011-06-16 07:51:25 51°20.486 2°59.673 -999 37 15 101010 45
2011-06-16 07:51:31 51°20.491 2°59.703 0.1 21 15 101000 45
2011-06-16 07:51:36 51°20.495 2°59.727 0.7 23 15 101010 45
2011-06-16 07:51:41 51°20.5 2°59.751 0.8 27 15 101010 45
2011-06-16 07:51:45 51°20.503 2°59.771 0.2 35 15 101010 45
2011-06-16 07:51:50 51°20.508 2°59.795 0.1 36 15 101010 45
2011-06-16 07:51:56 51°20.514 2°59.824 -999 32 15 101010 44
2011-06-16 07:52:01 51°20.519 2°59.848 -999 32 15 101010 44
2011-06-16 07:52:05 51°20.524 2°59.867 -999 19 15 101010 44
2011-06-16 07:52:10 51°20.53 2°59.89 -999 37 15 101010 45
2011-06-16 07:52:16 51°20.537 2°59.918 0.1 36 15 101010 45
2011-06-16 07:52:21 51°20.543 2°59.941 0.1 36 15 101010 45
2011-06-16 07:52:25 51°20.547 2°59.96 0.2 32 15 101010 45
2011-06-16 07:52:30 51°20.554 2°59.983 0.7 33 15 101010 45
2011-06-16 07:52:35 51°20.559 3°0.006 0.1 32 15 101010 45
2011-06-16 07:52:41 51°20.566 3°0.035 0.1 33 15.1 101010 45
2011-06-16 07:52:46 51°20.571 3°0.059 0.1 31 15.1 101010 45
2011-06-16 07:52:51 51°20.575 3°0.083 0.1 26 15.1 101010 45
2011-06-16 07:52:56 51°20.58 3°0.107 2.1 23 15.1 101010 45
2011-06-16 07:53:01 51°20.584 3°0.132 1.9 25 15.1 101010 45
2011-06-16 07:53:06 51°20.589 3°0.156 0.9 19 15.1 101010 45
2011-06-16 07:53:11 51°20.592 3°0.18 1 20 15.1 101010 45
2011-06-16 07:53:16 51°20.597 3°0.204 1.6 21 15.1 101010 45
2011-06-16 07:53:21 51°20.602 3°0.229 0.5 30 15.1 101010 46
2011-06-16 07:53:26 51°20.607 3°0.253 0.9 35 15.1 101010 46
2011-06-16 07:53:31 51°20.613 3°0.276 0.2 29 15.1 101010 43
2011-06-16 07:53:36 51°20.618 3°0.3 0.3 26 15.1 101010 46
2011-06-16 07:53:41 51°20.624 3°0.323 1.1 21 15.1 101010 46
2011-06-16 07:53:46 51°20.63 3°0.346 0.4 22 15.1 101010 45
2011-06-16 07:53:51 51°20.636 3°0.37 0.3 20 15.1 101010 45
2011-06-16 07:53:56 51°20.643 3°0.393 1 24 15.1 101010 44
2011-06-16 07:54:01 51°20.649 3°0.416 0.3 22 15.1 101010 44
2011-06-16 07:54:06 51°20.655 3°0.439 0.4 31 15.1 101010 44
2011-06-16 07:54:10 51°20.66 3°0.458 0.1 30 15.1 101010 46
2011-06-16 07:54:16 51°20.667 3°0.486 0.1 29 15.2 101010 45
2011-06-16 07:54:21 51°20.672 3°0.509 -999 23 15.2 101010 45
2011-06-16 07:54:26 51°20.678 3°0.533 1.6 27 15.2 101010 45
2011-06-16 07:54:30 51°20.681 3°0.552 3.6 29 15.2 101010 45
2011-06-16 07:54:36 51°20.686 3°0.581 3.1 28 15.2 101010 45
2011-06-16 07:54:41 51°20.691 3°0.605 2.9 26 15.2 101010 45
2011-06-16 07:54:46 51°20.695 3°0.63 3 25 15.2 101010 45
2011-06-16 07:54:50 51°20.698 3°0.649 2.6 24 15.2 101010 46
2011-06-16 07:54:55 51°20.702 3°0.674 2.4 24 15.2 101010 46
2011-06-16 07:55:00 51°20.706 3°0.698 1.6 24 15.2 101010 45
2011-06-16 07:55:07 51°20.712 3°0.732 2.9 24 15.2 101010 45
2011-06-16 07:55:11 51°20.715 3°0.752 1.2 28 15.1 101010 46
2011-06-16 07:55:16 51°20.72 3°0.776 2.2 33 15.1 101010 46
2011-06-16 07:55:21 51°20.725 3°0.8 0.5 31 15.2 101010 44
2011-06-16 07:55:26 51°20.73 3°0.824 0.8 26 15.2 101010 44
2011-06-16 07:55:31 51°20.736 3°0.847 0.9 31 15.1 101010 46
2011-06-16 07:55:35 51°20.741 3°0.866 1.7 36 15.1 101010 44
2011-06-16 07:55:40 51°20.747 3°0.89 2 33 15.1 101010 44
2011-06-16 07:55:46 51°20.754 3°0.918 0.5 38 15.1 101010 46
2011-06-16 07:55:51 51°20.76 3°0.941 1.4 -999 15.1 101010 46
2011-06-16 07:55:55 51°20.765 3°0.96 1.4 39 15.1 101010 46
2011-06-16 07:56:00 51°20.771 3°0.984 1.1 44 15.2 101000 44
2011-06-16 07:56:06 51°20.778 3°1.011 1.9 36 15.2 101000 44
2011-06-16 07:56:11 51°20.784 3°1.035 0.3 39 15.2 101010 45
2011-06-16 07:56:15 51°20.789 3°1.054 1.7 39 15.2 101010 45
2011-06-16 07:56:19 51°20.793 3°1.073 0.5 31 15.1 101010 46
2011-06-16 07:56:26 51°20.8 3°1.107 0.1 25 15.1 101010 46
2011-06-16 07:56:30 51°20.804 3°1.126 0.1 18 15.1 101010 44
2011-06-16 07:56:35 51°20.808 3°1.151 0.1 30 15.1 101000 46
2011-06-16 07:56:40 51°20.812 3°1.175 0.1 32 15.1 101000 46
2011-06-16 07:56:45 51°20.817 3°1.2 1.9 34 15.1 101000 46
2011-06-16 07:56:51 51°20.822 3°1.229 0.2 -999 15.1 101010 45
2011-06-16 07:56:56 51°20.826 3°1.254 0.1 34 15.1 101010 45
2011-06-16 07:57:01 51°20.831 3°1.278 -999 38 15.1 101010 45
2011-06-16 07:57:06 51°20.836 3°1.301 -999 36 15.1 101000 45
2011-06-16 07:57:11 51°20.842 3°1.325 -999 40 15.1 101000 45
2011-06-16 07:57:16 51°20.848 3°1.349 -999 41 15.1 101000 45
2011-06-16 07:57:20 51°20.853 3°1.367 -999 42 15.1 101010 45
2011-06-16 07:57:26 51°20.86 3°1.395 -999 40 15.1 101000 45
2011-06-16 07:57:31 51°20.867 3°1.417 -999 78 15.1 101000 45
2011-06-16 07:57:36 51°20.873 3°1.44 -999 41 15.1 101010 45
2011-06-16 07:57:40 51°20.878 3°1.458 -999 78 15.1 101010 45
2011-06-16 07:57:46 51°20.886 3°1.486 -999 45 15.1 101010 45
2011-06-16 07:57:51 51°20.892 3°1.508 -999 24 15.1 101010 45
2011-06-16 07:57:56 51°20.899 3°1.531 -999 35 15.1 101010 45
2011-06-16 07:58:00 51°20.905 3°1.549 -999 42 15.1 101000 45
2011-06-16 07:58:05 51°20.911 3°1.572 -999 35 15.1 101000 45
2011-06-16 07:58:11 51°20.919 3°1.6 -999 34 15.1 101010 45
2011-06-16 07:58:16 51°20.925 3°1.623 -999 34 15.1 101000 45
2011-06-16 07:58:21 51°20.931 3°1.646 -999 29 15.1 101000 45
2011-06-16 07:58:25 51°20.935 3°1.665 -999 30 15.1 101000 45
2011-06-16 07:58:31 51°20.941 3°1.694 -999 36 15.1 101000 45
2011-06-16 07:58:36 51°20.946 3°1.717 -999 36 15.1 101000 45
2011-06-16 07:58:41 51°20.951 3°1.742 -999 34 15.1 101000 45
2011-06-16 07:58:45 51°20.955 3°1.761 -999 34 15.1 101000 45
2011-06-16 07:58:51 51°20.96 3°1.79 -999 -999 15.1 101000 43
2011-06-16 07:58:56 51°20.964 3°1.814 -999 35 15.1 101000 45
2011-06-16 07:59:01 51°20.969 3°1.838 -999 38 15.1 101000 45
2011-06-16 07:59:05 51°20.973 3°1.857 -999 36 15.1 101000 45
2011-06-16 07:59:09 51°20.977 3°1.877 -999 22 15.1 101000 45
2011-06-16 07:59:15 51°20.984 3°1.905 -999 35 15.1 101000 45
2011-06-16 07:59:21 51°20.991 3°1.933 -999 41 15 101000 45
2011-06-16 07:59:25 51°20.996 3°1.951 -999 40 15 101010 45
2011-06-16 07:59:30 51°21.002 3°1.974 -999 42 15 101010 45
2011-06-16 07:59:36 51°21.009 3°2.002 -999 43 15 101010 45
2011-06-16 07:59:41 51°21.016 3°2.025 -999 42 15 101000 45
2011-06-16 07:59:46 51°21.022 3°2.048 -999 44 15 101000 45
2011-06-16 07:59:51 51°21.029 3°2.071 -999 -999 15 101000 45
2011-06-16 07:59:56 51°21.035 3°2.094 -999 35 15 101010 45
2011-06-16 08:00:01 51°21.04 3°2.118 -999 44 15 101010 45
2011-06-16 08:00:06 51°21.046 3°2.142 -999 35 15 101000 45
2011-06-16 08:00:10 51°21.05 3°2.161 -999 24 15 101000 45
2011-06-16 08:00:16 51°21.056 3°2.19 -999 31 15 101000 45
2011-06-16 08:00:21 51°21.061 3°2.214 -999 29 15 101000 45
2011-06-16 08:00:26 51°21.066 3°2.238 -999 28 15 101000 45
2011-06-16 08:00:31 51°21.07 3°2.263 -999 21 15 101000 45
2011-06-16 08:00:36 51°21.075 3°2.287 -999 26 15 101000 45
2011-06-16 08:00:41 51°21.08 3°2.311 -999 28 15.1 101000 45
2011-06-16 08:00:46 51°21.085 3°2.335 -999 32 15.1 101000 45
2011-06-16 08:00:51 51°21.089 3°2.359 -999 -999 15.1 101000 45
2011-06-16 08:00:56 51°21.094 3°2.383 0.1 30 15.1 101000 45
2011-06-16 08:01:01 51°21.1 3°2.407 0.1 38 15.1 101000 45
2011-06-16 08:01:06 51°21.105 3°2.431 0.1 37 15.1 101000 45
2011-06-16 08:01:11 51°21.11 3°2.455 -999 40 15.1 101000 45
2011-06-16 08:01:16 51°21.116 3°2.479 -999 34 15.1 101000 45
2011-06-16 08:01:21 51°21.121 3°2.502 -999 39 15.1 101000 45
2011-06-16 08:01:26 51°21.126 3°2.526 -999 38 15.1 101000 45
2011-06-16 08:01:30 51°21.131 3°2.545 -999 30 15.1 101000 44
2011-06-16 08:01:36 51°21.136 3°2.575 -999 34 15.1 101010 45
2011-06-16 08:01:41 51°21.14 3°2.599 0.1 32 15.1 101010 45
2011-06-16 08:01:46 51°21.144 3°2.624 0.1 34 15.1 101010 45
2011-06-16 08:01:51 51°21.148 3°2.649 -999 -999 15.1 101000 45
2011-06-16 08:01:56 51°21.152 3°2.673 0.1 33 15.1 101000 45
2011-06-16 08:02:01 51°21.156 3°2.698 0.1 34 15.1 101010 45
2011-06-16 08:02:06 51°21.16 3°2.722 0.1 36 15.1 101010 45
2011-06-16 08:02:11 51°21.164 3°2.747 0.1 37 15.1 101000 45
2011-06-16 08:02:16 51°21.168 3°2.771 0.1 36 15.1 101000 45
2011-06-16 08:02:21 51°21.171 3°2.796 0.1 26 15.1 101000 45
2011-06-16 08:02:26 51°21.174 3°2.82 -999 29 15.1 101000 45
2011-06-16 08:02:31 51°21.178 3°2.845 0.1 39 15.1 101010 45
2011-06-16 08:02:36 51°21.182 3°2.87 0.1 35 15.1 101010 45
2011-06-16 08:02:41 51°21.185 3°2.894 -999 36 15.1 101000 45
2011-06-16 08:02:46 51°21.189 3°2.919 -999 32 15.1 101010 45
2011-06-16 08:02:51 51°21.193 3°2.943 -999 28 15.1 101010 45
2011-06-16 08:02:56 51°21.197 3°2.968 -999 26 15.1 101010 45
2011-06-16 08:03:01 51°21.201 3°2.992 0.1 36 15.1 101010 45
2011-06-16 08:03:06 51°21.206 3°3.016 0.4 36 15.1 101010 45
2011-06-16 08:03:11 51°21.211 3°3.041 1.2 35 15.1 101000 45
2011-06-16 08:03:16 51°21.216 3°3.065 0.2 39 15.1 101000 45
2011-06-16 08:03:21 51°21.221 3°3.089 0.7 33 15.1 101000 45
2011-06-16 08:03:26 51°21.227 3°3.113 0.2 33 15.2 101000 45
2011-06-16 08:03:30 51°21.231 3°3.132 0.1 36 15.2 101000 45
2011-06-16 08:03:36 51°21.238 3°3.161 0.1 35 15.2 101010 46
2011-06-16 08:03:41 51°21.243 3°3.185 0.1 41 15.2 101010 46
2011-06-16 08:03:46 51°21.248 3°3.21 0.1 41 15.2 101000 45
2011-06-16 08:03:51 51°21.252 3°3.234 0.1 -999 15.2 101000 45
2011-06-16 08:03:56 51°21.256 3°3.259 -999 31 15.2 101000 45
2011-06-16 08:04:01 51°21.26 3°3.284 -999 28 15.2 101000 45
2011-06-16 08:04:06 51°21.264 3°3.309 0.1 26 15.2 101010 43
2011-06-16 08:04:10 51°21.268 3°3.329 0.2 28 15.2 101010 43
2011-06-16 08:04:16 51°21.273 3°3.359 0.1 21 15.2 101010 43
2011-06-16 08:04:21 51°21.278 3°3.384 0.1 24 15.2 101000 45
2011-06-16 08:04:26 51°21.283 3°3.409 0.1 34 15.2 101000 45
2011-06-16 08:04:30 51°21.287 3°3.428 0.1 31 15.2 101000 45
2011-06-16 08:04:36 51°21.294 3°3.457 0.1 17 15.2 101000 43
2011-06-16 08:04:41 51°21.299 3°3.482 0.1 25 15.2 101000 43
2011-06-16 08:04:46 51°21.305 3°3.506 0.1 31 15.2 101000 45
2011-06-16 08:04:51 51°21.31 3°3.53 1 -999 15.2 101000 45
2011-06-16 08:04:56 51°21.316 3°3.553 1.4 42 15.2 101000 45
2011-06-16 08:05:01 51°21.322 3°3.577 0.9 40 15.2 101000 45
2011-06-16 08:05:06 51°21.328 3°3.601 0.3 39 15.2 101000 45
2011-06-16 08:05:11 51°21.333 3°3.626 0.2 33 15.2 101000 45
2011-06-16 08:05:16 51°21.338 3°3.651 0.1 38 15.2 101000 46
2011-06-16 08:05:21 51°21.342 3°3.675 0.8 33 15.2 101000 46
2011-06-16 08:05:26 51°21.347 3°3.7 0.2 35 15.2 101010 45
2011-06-16 08:05:31 51°21.351 3°3.725 0.1 31 15.2 101010 45
2011-06-16 08:05:36 51°21.356 3°3.75 -999 32 15.2 101000 45
2011-06-16 08:05:41 51°21.36 3°3.775 0.2 26 15.2 101000 45
2011-06-16 08:05:46 51°21.365 3°3.8 0.1 32 15.2 101000 45
2011-06-16 08:05:51 51°21.369 3°3.825 0.1 35 15.2 101000 45
2011-06-16 08:05:56 51°21.374 3°3.849 0.1 38 15.2 101000 43
2011-06-16 08:06:01 51°21.379 3°3.874 0.2 31 15.2 101000 43
2011-06-16 08:06:06 51°21.385 3°3.898 0.1 37 15.2 101000 43
2011-06-16 08:06:11 51°21.39 3°3.922 -999 33 15.2 101000 45
2011-06-16 08:06:16 51°21.395 3°3.946 -999 34 15.2 101000 45
2011-06-16 08:06:21 51°21.399 3°3.971 -999 27 15.3 101010 45
2011-06-16 08:06:26 51°21.403 3°3.996 0.4 26 15.3 101010 45
2011-06-16 08:06:31 51°21.408 3°4.02 0.2 19 15.3 101000 45
2011-06-16 08:06:36 51°21.411 3°4.045 0.1 29 15.3 101000 45
2011-06-16 08:06:41 51°21.415 3°4.07 0.7 27 15.3 101000 45
2011-06-16 08:06:46 51°21.418 3°4.096 0.1 38 15.3 101000 43
2011-06-16 08:06:51 51°21.421 3°4.121 0.6 -999 15.3 101000 43
2011-06-16 08:06:56 51°21.425 3°4.146 0.2 14 15.3 101000 43
2011-06-16 08:07:01 51°21.428 3°4.171 0.1 31 15.3 101000 45
2011-06-16 08:07:06 51°21.431 3°4.196 -999 29 15.3 101000 45
2011-06-16 08:07:11 51°21.434 3°4.221 0.7 25 15.3 101000 45
2011-06-16 08:07:16 51°21.438 3°4.246 0.7 31 15.3 101000 45
2011-06-16 08:07:21 51°21.442 3°4.27 0.8 39 15.3 101000 45
2011-06-16 08:07:26 51°21.446 3°4.295 0.2 34 15.3 101000 44
2011-06-16 08:07:31 51°21.45 3°4.319 0.1 42 15.3 101000 44
2011-06-16 08:07:36 51°21.455 3°4.343 0.2 39 15.3 101000 44
2011-06-16 08:07:41 51°21.46 3°4.367 0.1 36 15.3 101000 44
2011-06-16 08:07:46 51°21.464 3°4.391 0.1 39 15.3 101000 44
2011-06-16 08:07:50 51°21.468 3°4.41 0.1 23 15.3 101000 45
2011-06-16 08:07:56 51°21.474 3°4.439 -999 41 15.3 101000 45
2011-06-16 08:08:01 51°21.478 3°4.463 0.1 78 15.3 101000 45
2011-06-16 08:08:06 51°21.483 3°4.487 0.1 32 15.3 101000 45
2011-06-16 08:08:11 51°21.488 3°4.51 0.1 35 15.3 101000 45
2011-06-16 08:08:16 51°21.493 3°4.534 0.1 38 15.3 101000 45
2011-06-16 08:08:21 51°21.497 3°4.558 0.1 11 15.3 101000 45
2011-06-16 08:08:26 51°21.501 3°4.583 0.1 21 15.3 101000 45
2011-06-16 08:08:31 51°21.505 3°4.607 0.5 31 15.3 101000 45
2011-06-16 08:08:36 51°21.508 3°4.631 0.2 29 15.3 101000 45
2011-06-16 08:08:41 51°21.512 3°4.656 0.1 23 15.3 101000 45
2011-06-16 08:08:46 51°21.515 3°4.681 0.9 29 15.3 101000 45
2011-06-16 08:08:51 51°21.518 3°4.706 0.5 -999 15.3 101000 45
2011-06-16 08:08:56 51°21.52 3°4.731 0.1 32 15.3 101000 45
2011-06-16 08:09:01 51°21.523 3°4.755 0.1 30 15.3 101000 45
2011-06-16 08:09:06 51°21.526 3°4.78 3.2 31 15.3 101000 45
2011-06-16 08:09:11 51°21.529 3°4.805 0.2 36 15.3 101000 45
2011-06-16 08:09:16 51°21.532 3°4.83 2.2 32 15.3 101000 45
2011-06-16 08:09:21 51°21.535 3°4.855 1 23 15.3 101000 45
2011-06-16 08:09:26 51°21.538 3°4.879 1.9 29 15.3 101000 45
2011-06-16 08:09:30 51°21.541 3°4.898 2.5 25 15.3 101000 43
2011-06-16 08:09:36 51°21.545 3°4.928 2.8 32 15.3 101000 43
2011-06-16 08:09:41 51°21.549 3°4.952 2.7 36 15.3 101000 46
2011-06-16 08:09:46 51°21.552 3°4.977 0.3 33 15.3 101000 44
2011-06-16 08:09:51 51°21.555 3°5.001 0.1 32 15.3 101000 44
2011-06-16 08:09:56 51°21.558 3°5.026 0.2 32 15.3 101000 44
2011-06-16 08:10:01 51°21.562 3°5.05 0.1 36 15.3 101000 44
2011-06-16 08:10:06 51°21.566 3°5.075 0.1 40 15.3 101000 44
2011-06-16 08:10:10 51°21.569 3°5.094 -999 42 15.3 101000 45
2011-06-16 08:10:16 51°21.573 3°5.123 -999 39 15.3 101000 45
2011-06-16 08:10:21 51°21.578 3°5.147 -999 40 15.3 101000 45
2011-06-16 08:10:26 51°21.583 3°5.17 -999 41 15.3 101000 45
2011-06-16 08:10:30 51°21.587 3°5.19 1.2 43 15.3 101000 45
2011-06-16 08:10:36 51°21.592 3°5.218 1.1 36 15.3 101000 45
2011-06-16 08:10:41 51°21.597 3°5.242 0.3 39 15.2 101000 45
2011-06-16 08:10:46 51°21.602 3°5.265 0.2 42 15.2 101000 45
2011-06-16 08:10:51 51°21.607 3°5.289 0.5 43 15.3 101000 44
2011-06-16 08:10:56 51°21.612 3°5.313 0.3 42 15.3 101000 44
2011-06-16 08:11:01 51°21.617 3°5.337 0.1 42 15.2 101000 46
2011-06-16 08:11:06 51°21.621 3°5.361 0.1 41 15.2 101000 44
2011-06-16 08:11:11 51°21.625 3°5.385 -999 43 15.2 101000 44
2011-06-16 08:11:16 51°21.63 3°5.408 -999 38 15.2 101000 44
2011-06-16 08:11:21 51°21.634 3°5.432 0.1 40 15.2 101000 44
2011-06-16 08:11:26 51°21.638 3°5.457 0.1 30 15.2 101000 44
2011-06-16 08:11:31 51°21.641 3°5.481 0.1 30 15.2 101000 44
2011-06-16 08:11:36 51°21.644 3°5.506 1.4 27 15.2 101000 44
2011-06-16 08:11:41 51°21.647 3°5.531 1.1 31 15.2 101000 45
2011-06-16 08:11:46 51°21.649 3°5.556 0.2 32 15.2 101000 45
2011-06-16 08:11:50 51°21.651 3°5.576 0.1 33 15.2 101000 45
2011-06-16 08:11:56 51°21.654 3°5.606 0.1 33 15.2 101000 45
2011-06-16 08:12:01 51°21.657 3°5.631 0.3 26 15.2 101010 44
2011-06-16 08:12:06 51°21.659 3°5.656 0.1 29 15.2 101010 44
2011-06-16 08:12:10 51°21.661 3°5.676 0.1 18 15.2 101000 43
2011-06-16 08:12:16 51°21.665 3°5.706 0.1 32 15.2 101000 43
2011-06-16 08:12:21 51°21.668 3°5.73 0.1 33 15.2 101000 45
2011-06-16 08:12:26 51°21.672 3°5.754 0.1 33 15.2 101000 45
2011-06-16 08:12:31 51°21.676 3°5.779 0.1 26 15.2 101000 45
2011-06-16 08:12:36 51°21.68 3°5.803 -999 34 15.3 101000 45
2011-06-16 08:12:41 51°21.685 3°5.827 0.1 34 15.3 101000 45
2011-06-16 08:12:46 51°21.689 3°5.851 0.1 37 15.3 101000 45
2011-06-16 08:12:50 51°21.692 3°5.871 0.1 38 15.3 101000 45
2011-06-16 08:12:56 51°21.698 3°5.9 0.6 31 15.3 101000 45
2011-06-16 08:13:01 51°21.701 3°5.925 0.1 36 15.3 101000 45
2011-06-16 08:13:06 51°21.705 3°5.949 0.1 32 15.3 101000 45
2011-06-16 08:13:11 51°21.707 3°5.975 0.3 26 15.3 101000 45
2011-06-16 08:13:16 51°21.71 3°6 0.2 26 15.3 101000 45
2011-06-16 08:13:21 51°21.713 3°6.025 0.2 27 15.3 101000 45
2011-06-16 08:13:26 51°21.716 3°6.05 0.1 30 15.3 101000 44
2011-06-16 08:13:31 51°21.718 3°6.076 0.1 32 15.3 101000 44
2011-06-16 08:13:36 51°21.721 3°6.101 0.4 35 15.3 101010 44
2011-06-16 08:13:41 51°21.724 3°6.126 0.2 35 15.3 101010 44
2011-06-16 08:13:46 51°21.728 3°6.15 0.1 36 15.3 101000 45
2011-06-16 08:13:50 51°21.731 3°6.17 0.1 37 15.3 101000 45
2011-06-16 08:13:56 51°21.736 3°6.199 0.1 39 15.3 101000 45
2011-06-16 08:14:01 51°21.74 3°6.224 -999 40 15.3 101000 45
2011-06-16 08:14:06 51°21.744 3°6.249 -999 43 15.3 101000 45
2011-06-16 08:14:11 51°21.748 3°6.273 -999 38 15.3 101010 44
2011-06-16 08:14:16 51°21.752 3°6.298 -999 40 15.3 101000 44
2011-06-16 08:14:21 51°21.755 3°6.323 0.1 30 15.3 101000 44
2011-06-16 08:14:26 51°21.758 3°6.348 0.1 31 15.3 101000 44
2011-06-16 08:14:31 51°21.761 3°6.373 0.1 26 15.3 101010 44
2011-06-16 08:14:36 51°21.764 3°6.398 -999 20 15.3 101000 44
2011-06-16 08:14:41 51°21.767 3°6.423 -999 28 15.3 101000 44
2011-06-16 08:14:46 51°21.77 3°6.449 -999 31 15.3 101010 43
2011-06-16 08:14:50 51°21.772 3°6.469 -999 36 15.3 101010 43
2011-06-16 08:14:56 51°21.776 3°6.499 -999 37 15.3 101000 45
2011-06-16 08:15:01 51°21.779 3°6.524 -999 37 15.3 101000 45
2011-06-16 08:15:06 51°21.782 3°6.549 -999 20 15.3 101000 45
2011-06-16 08:15:11 51°21.785 3°6.574 -999 16 15.3 101000 45
2011-06-16 08:15:16 51°21.789 3°6.599 -999 17 15.3 101000 45
2011-06-16 08:15:21 51°21.792 3°6.624 -999 18 15.3 101000 45
2011-06-16 08:15:26 51°21.795 3°6.649 -999 22 15.3 101000 45
2011-06-16 08:15:30 51°21.798 3°6.669 -999 22 15.3 101000 45
2011-06-16 08:15:36 51°21.801 3°6.7 -999 25 15.4 101000 45
2011-06-16 08:15:41 51°21.804 3°6.725 -999 24 15.4 101000 45
2011-06-16 08:15:46 51°21.806 3°6.751 -999 23 15.4 101000 45
2011-06-16 08:15:51 51°21.808 3°6.777 4.3 -999 15.4 101000 45
2011-06-16 08:15:56 51°21.81 3°6.803 3.3 19 15.4 101000 45
2011-06-16 08:16:01 51°21.812 3°6.828 4.6 25 15.4 101000 45
2011-06-16 08:16:06 51°21.813 3°6.854 3.8 28 15.4 101000 44
2011-06-16 08:16:11 51°21.814 3°6.88 3.9 27 15.4 101000 44
2011-06-16 08:16:16 51°21.816 3°6.906 3.9 23 15.4 101000 44
2011-06-16 08:16:21 51°21.817 3°6.932 3.2 25 15.3 101000 45
2011-06-16 08:16:26 51°21.819 3°6.957 3.7 22 15.3 101000 45
2011-06-16 08:16:30 51°21.82 3°6.978 3.9 23 15.3 101000 45
2011-06-16 08:16:36 51°21.822 3°7.009 3.8 25 15.3 101000 45
2011-06-16 08:16:41 51°21.824 3°7.035 3.3 25 15.3 101000 45
2011-06-16 08:16:46 51°21.826 3°7.061 0.5 24 15.3 101010 44
2011-06-16 08:16:51 51°21.828 3°7.086 0.2 23 15.3 101010 44